^^
Saratoga-Weather Station Historical Data
Daily Summary for May 12, 2020 Units:  English    Metric   Both
Daily Weekly Monthly Yearly Custom
  High: Low: Average:
Temperature: 62.1 °F 54 °F 57.4 °F
Dew Point: 51.3 °F 47.1 °F 48.6 °F
Humidity: 79% 62% 72%
Wind Speed: 4mph 0mph 1mph
Wind Gust: 8mph - -
Wind- - SSW
Pressure: 30.3 in 30.2 in -
Precipitation: 0 in    
Historical Graphs
 
 
Tabular Data for May 12, 2020
Time Temperature Dew Point Pressure Wind Wind Speed Wind Gust Humidity Rainfall Rate (Hourly) solar
00:00 62.1 °F 48.9 °F 30.2 in SW 2 mph 3 mph 62% 0 in 0 W/m2
00:05 61.9 °F 49.1 °F 30.2 in WNW 2.9 mph 3 mph 63% 0 in 0 W/m2
00:10 61.7 °F 48.9 °F 30.3 in Calm   3 mph 63% 0 in 0 W/m2
00:15 61.5 °F 48.7 °F 30.3 in WNW 2 mph 7 mph 63% 0 in 0 W/m2
00:20 61.3 °F 49.1 °F 30.3 in NW 2 mph 3 mph 64% 0 in 0 W/m2
00:25 61.2 °F 48.9 °F 30.3 in West 2.9 mph 7 mph 64% 0 in 0 W/m2
00:30 61.2 °F 49.3 °F 30.3 in NW 2.9 mph 3 mph 65% 0 in 0 W/m2
00:35 61.2 °F 49.3 °F 30.3 in NW 0.9 mph 4 mph 65% 0 in 0 W/m2
00:40 61 °F 49.1 °F 30.3 in WSW 2.9 mph 4 mph 65% 0 in 0 W/m2
00:45 61 °F 49.1 °F 30.3 in Calm   3 mph 65% 0 in 0 W/m2
00:50 60.6 °F 49.3 °F 30.3 in WNW 4 mph 5 mph 66% 0 in 0 W/m2
00:55 60.6 °F 49.3 °F 30.3 in WNW 4 mph 4 mph 66% 0 in 0 W/m2
01:00 60.6 °F 49.3 °F 30.3 in West 0.9 mph 4 mph 66% 0 in 0 W/m2
01:05 60.4 °F 49.1 °F 30.3 in Calm   4 mph 66% 0 in 0 W/m2
01:10 60.4 °F 49.1 °F 30.3 in NNW 0.9 mph 3 mph 66% 0 in 0 W/m2
01:15 60.4 °F 49.5 °F 30.3 in West 0.9 mph 2 mph 67% 0 in 0 W/m2
01:20 60.3 °F 49.3 °F 30.3 in WNW 2.9 mph 8 mph 67% 0 in 0 W/m2
01:25 60.1 °F 49.1 °F 30.3 in Calm   2 mph 67% 0 in 0 W/m2
01:30 59.9 °F 49.3 °F 30.3 in NE 0.9 mph 8 mph 68% 0 in 0 W/m2
01:35 59.7 °F 49.1 °F 30.3 in NNW 2.9 mph 4 mph 68% 0 in 0 W/m2
01:40 59.7 °F 49.1 °F 30.3 in Calm   1 mph 68% 0 in 0 W/m2
01:45 59.5 °F 48.9 °F 30.3 in Calm   3 mph 68% 0 in 0 W/m2
01:50 59.4 °F 49.1 °F 30.3 in Calm   4 mph 69% 0 in 0 W/m2
01:55 59.2 °F 49.1 °F 30.3 in Calm   1 mph 69% 0 in 0 W/m2
02:00 59 °F 48.9 °F 30.3 in North 0.9 mph 2 mph 69% 0 in 0 W/m2
02:05 59 °F 48.9 °F 30.3 in Calm   4 mph 69% 0 in 0 W/m2
02:10 58.8 °F 48.7 °F 30.3 in Calm   1 mph 69% 0 in 0 W/m2
02:15 58.6 °F 48.6 °F 30.3 in East 0.9 mph 3 mph 69% 0 in 0 W/m2
02:20 58.6 °F 48.6 °F 30.3 in East 0.9 mph 2 mph 69% 0 in 0 W/m2
02:25 58.6 °F 48.9 °F 30.3 in NNW 2 mph 3 mph 70% 0 in 0 W/m2
02:30 58.5 °F 48.7 °F 30.3 in Calm   1 mph 70% 0 in 0 W/m2
02:35 58.1 °F 48.7 °F 30.3 in SSE 2 mph 3 mph 71% 0 in 0 W/m2
02:40 57.9 °F 48.6 °F 30.3 in SSW 2 mph 2 mph 71% 0 in 0 W/m2
02:45 57.7 °F 48.4 °F 30.3 in ESE 0.9 mph 3 mph 71% 0 in 0 W/m2
02:50 57.7 °F 48.4 °F 30.3 in Calm   2 mph 71% 0 in 0 W/m2
02:55 57.7 °F 48.4 °F 30.3 in SE 2 mph 2 mph 71% 0 in 0 W/m2
03:00 57.6 °F 48.2 °F 30.3 in Calm   1 mph 71% 0 in 0 W/m2
03:05 57.6 °F 48.2 °F 30.3 in SE 0.9 mph 2 mph 71% 0 in 0 W/m2
03:10 57.4 °F 48.4 °F 30.3 in SE 0.9 mph 2 mph 72% 0 in 0 W/m2
03:15 57 °F 48 °F 30.3 in East 0.9 mph 1 mph 72% 0 in 0 W/m2
03:21 57 °F 48 °F 30.3 in Calm   1 mph 72% 0 in 0 W/m2
03:26 57 °F 48.4 °F 30.3 in SSW 2 mph 2 mph 73% 0 in 0 W/m2
03:31 56.8 °F 47.8 °F 30.2 in Calm   2 mph 72% 0 in 0 W/m2
03:36 56.8 °F 47.8 °F 30.2 in NE 0.9 mph 3 mph 72% 0 in 0 W/m2
03:41 56.7 °F 48 °F 30.2 in ENE 0.9 mph 4 mph 73% 0 in 0 W/m2
03:46 56.7 °F 47.7 °F 30.2 in Calm   2 mph 72% 0 in 0 W/m2
03:51 56.7 °F 47.7 °F 30.2 in SW 0.9 mph 3 mph 72% 0 in 0 W/m2
03:56 56.7 °F 47.7 °F 30.2 in Calm   1 mph 72% 0 in 0 W/m2
04:01 56.5 °F 47.5 °F 30.2 in Calm   1 mph 72% 0 in 0 W/m2
04:06 56.5 °F 47.5 °F 30.2 in North 2 mph 4 mph 72% 0 in 0 W/m2
04:11 56.5 °F 48 °F 30.2 in North 0.9 mph 1 mph 73% 0 in 0 W/m2
04:16 56.3 °F 47.8 °F 30.2 in North 2 mph 2 mph 73% 0 in 0 W/m2
04:21 55.9 °F 47.8 °F 30.2 in West 0.9 mph 1 mph 74% 0 in 0 W/m2
04:26 55.8 °F 47.7 °F 30.2 in West 2 mph 2 mph 74% 0 in 0 W/m2
04:31 55.2 °F 47.5 °F 30.2 in ENE 2 mph 2 mph 75% 0 in 0 W/m2
04:36 55 °F 47.7 °F 30.2 in Calm   1 mph 76% 0 in 0 W/m2
04:41 55 °F 47.7 °F 30.2 in ESE 0.9 mph 1 mph 76% 0 in 0 W/m2
04:46 55 °F 47.7 °F 30.2 in Calm   1 mph 76% 0 in 0 W/m2
04:51 55.2 °F 47.5 °F 30.2 in Calm   1 mph 75% 0 in 0 W/m2
04:56 55.2 °F 47.5 °F 30.3 in Calm     75% 0 in 0 W/m2
05:01 55 °F 47.7 °F 30.2 in Calm   1 mph 76% 0 in 0 W/m2
05:06 55 °F 47.3 °F 30.2 in NNE 0.9 mph 3 mph 75% 0 in 0 W/m2
05:11 55 °F 47.3 °F 30.2 in Calm     75% 0 in 0 W/m2
05:16 54.9 °F 47.5 °F 30.2 in Calm   3 mph 76% 0 in 0 W/m2
05:21 54.7 °F 47.3 °F 30.2 in Calm   1 mph 76% 0 in 0 W/m2
05:26 54.3 °F 47.3 °F 30.2 in Calm     77% 0 in 0 W/m2
05:31 54.1 °F 47.1 °F 30.3 in Calm   1 mph 77% 0 in 0 W/m2
05:36 54 °F 47.3 °F 30.3 in WSW 2 mph 2 mph 78% 0 in 0 W/m2
05:41 54 °F 47.3 °F 30.3 in Calm   2 mph 78% 0 in 0 W/m2
05:46 54.1 °F 47.5 °F 30.3 in Calm   1 mph 78% 0 in 5 W/m2
05:51 54.3 °F 47.7 °F 30.3 in South 2 mph 3 mph 78% 0 in 7 W/m2
05:56 54.5 °F 47.8 °F 30.3 in Calm   3 mph 78% 0 in 9 W/m2
06:01 54.7 °F 48 °F 30.3 in Calm     78% 0 in 11 W/m2
06:06 54.5 °F 47.8 °F 30.3 in Calm   1 mph 78% 0 in 12 W/m2
06:11 54.3 °F 48 °F 30.3 in WNW 0.9 mph 2 mph 79% 0 in 14 W/m2
06:16 54.5 °F 47.8 °F 30.3 in Calm   1 mph 78% 0 in 16 W/m2
06:21 54.7 °F 48 °F 30.3 in WNW 2 mph 2 mph 78% 0 in 18 W/m2
06:26 54.7 °F 48 °F 30.3 in Calm   2 mph 78% 0 in 19 W/m2
06:31 54.9 °F 48.2 °F 30.3 in Calm     78% 0 in 21 W/m2
06:36 54.9 °F 48.2 °F 30.3 in Calm   2 mph 78% 0 in 23 W/m2
06:41 54.9 °F 48.2 °F 30.3 in NE 2 mph 3 mph 78% 0 in 25 W/m2
06:46 55 °F 48 °F 30.3 in NNW 0.9 mph 3 mph 77% 0 in 26 W/m2
06:51 55.2 °F 48.2 °F 30.3 in WNW 2.9 mph 3 mph 77% 0 in 26 W/m2
06:56 55.2 °F 48.2 °F 30.3 in SW 0.9 mph 2 mph 77% 0 in 28 W/m2
07:01 55.2 °F 48.2 °F 30.3 in Calm   2 mph 77% 0 in 30 W/m2
07:06 55.4 °F 48.4 °F 30.3 in NNW 0.9 mph 4 mph 77% 0 in 30 W/m2
07:11 55.6 °F 48.6 °F 30.3 in NNW 0.9 mph 1 mph 77% 0 in 32 W/m2
07:16 55.6 °F 48.6 °F 30.3 in Calm   4 mph 77% 0 in 32 W/m2
07:21 55.8 °F 48.4 °F 30.3 in WNW 2 mph 2 mph 76% 0 in 33 W/m2
07:26 55.8 °F 48.7 °F 30.3 in WNW 0.9 mph 3 mph 77% 0 in 35 W/m2
07:31 55.9 °F 48.6 °F 30.3 in ENE 0.9 mph 2 mph 76% 0 in 35 W/m2
07:36 56.1 °F 48.7 °F 30.3 in West 2.9 mph 3 mph 76% 0 in 35 W/m2
07:41 56.3 °F 48.9 °F 30.3 in WNW 2 mph 3 mph 76% 0 in 37 W/m2
07:46 56.5 °F 48.9 °F 30.3 in WNW 2 mph 2 mph 76% 0 in 40 W/m2
07:51 56.7 °F 49.1 °F 30.3 in Calm   3 mph 76% 0 in 109 W/m2
07:56 56.8 °F 49.3 °F 30.3 in ENE 2 mph 3 mph 76% 0 in 237 W/m2
08:01 57 °F 49.1 °F 30.3 in NNE 0.9 mph 3 mph 75% 0 in 251 W/m2
08:06 57.6 °F 49.6 °F 30.3 in ESE 0.9 mph 2 mph 75% 0 in 265 W/m2
08:11 58.3 °F 50 °F 30.3 in NNE 2 mph 4 mph 74% 0 in 279 W/m2
08:16 58.6 °F 50 °F 30.3 in Calm   1 mph 73% 0 in 294 W/m2
08:21 59.2 °F 50.2 °F 30.3 in North 0.9 mph 4 mph 72% 0 in 279 W/m2
08:26 59.7 °F 50.4 °F 30.3 in ENE 0.9 mph 3 mph 71% 0 in 165 W/m2
08:31 60.3 °F 50.9 °F 30.3 in NNE 0.9 mph 1 mph 71% 0 in 62 W/m2
08:36 60.6 °F 50.7 °F 30.3 in NNW 0.9 mph 2 mph 70% 0 in 49 W/m2
08:41 60.8 °F 50.5 °F 30.3 in Calm   1 mph 69% 0 in 49 W/m2
08:46 61.2 °F 51.3 °F 30.3 in Calm   3 mph 70% 0 in 49 W/m2
08:51 61.3 °F 51.1 °F 30.3 in NW 2.9 mph 3 mph 69% 0 in 49 W/m2
08:56 61.5 °F 51.3 °F 30.3 in North 2 mph 3 mph 69% 0 in 49 W/m2
Juneau County Weather
Compliments of Weather Underground - 2 mb